User: anonymous   Login
Location: Unspecified
(0.0000°N, 0.0000°E)
Time: 06:56:47
(UTC+00:00)
Language:

AO-73 - Orbit

View from above orbital plane
View from above orbital plane
View from above satellite
View from above satellite

Ground track
Ground track

The orbit data is extracted from the following two-line orbital elements,

1 39444U 13066AE  18267.64613944 +.00000258 +00000-0 +38208-4 0  9991
2 39444 097.5822 292.5943 0058153 182.8434 177.2458 14.81775833260385
Epoch (UTC): 24 September 2018 15:30:26
Eccentricity: 0.0058153
inclination: 97.5822°
perigee height: 583 km
apogee height: 664 km
right ascension of ascending node: 292.5943°
argument of perigee: 182.8434°
revolutions per day: 14.81775833
mean anomaly at epoch: 177.2458°
orbit number at epoch: 26038

The dashed part of the orbit path shows where the satellite is in the earth's shadow,  

DLR